"Sample Date","Sample Time","Sample Value","Units","Flow Rate","Number Channels","Micron Size 0","Counts/Channel 0","Micron Size 1","Counts/Channel 1","Micron Size 2","Counts/Channel 2","Micron Size 3","Counts/Channel 3","Micron Size 4","Counts/Channel 4","Micron Size 5","Counts/Channel 5","Micron Size 6","Counts/Channel 6","Micron Size 7","Counts/Channel 7","Micron Size 8","Counts/Channel 8","Micron Size 9","Counts/Channel 9","Micron Size 10","Counts/Channel 10","Micron Size 11","Counts/Channel 11","Micron Size 12","Counts/Channel 12","Micron Size 13","Counts/Channel 13","Micron Size 14","Counts/Channel 14","Micron Size 15","Counts/Channel 15","Micron Size 16","Counts/Channel 16","Micron Size 17","Counts/Channel 17","Micron Size 18","Counts/Channel 18","Micron Size 19","Counts/Channel 19","Micron Size 20","Counts/Channel 20","Micron Size 21","Counts/Channel 21","Micron Size 22","Counts/Channel 22","Micron Size 23","Counts/Channel 23","Micron Size 24","Counts/Channel 24","Micron Size 25","Counts/Channel 25","Micron Size 26","Counts/Channel 26","Micron Size 27","Counts/Channel 27","Micron Size 28","Counts/Channel 28","Micron Size 29","Counts/Channel 29","Micron Size 30","Counts/Channel 30","Micron Size 31","Counts/Channel 31"
"05/06/08","02:00:04",29.000,"cc",28246.045,6,0.100,24.000,0.200,5.000,0.300,0,0.500,0,1.000,0,5.000,0
"05/06/08","02:00:10",27.000,"cc",28254.434,6,0.100,23.000,0.200,4.000,0.300,0,0.500,0,1.000,0,5.000,0
"05/06/08","02:00:16",24.000,"cc",28162.695,6,0.100,21.000,0.200,3.000,0.300,0,0.500,0,1.000,0,5.000,0
"05/06/08","02:00:22",27.000,"cc",28165.750,6,0.100,26.000,0.200,1.000,0.300,0,0.500,0,1.000,0,5.000,0
"05/06/08","02:00:28",30.000,"cc",28223.543,6,0.100,25.000,0.200,5.000,0.300,0,0.500,0,1.000,0,5.000,0
"05/06/08","02:00:34",21.000,"cc",28221.582,6,0.100,17.000,0.200,4.000,0.300,0,0.500,0,1.000,0,5.000,0
"05/06/08","02:00:40",27.000,"cc",28210.068,6,0.100,25.000,0.200,2.000,0.300,0,0.500,0,1.000,0,5.000,0
"05/06/08","02:00:46",21.000,"cc",28056.070,6,0.100,16.000,0.200,5.000,0.300,0,0.500,0,1.000,0,5.000,0
"05/06/08","02:00:52",25.000,"cc",28141.576,6,0.100,23.000,0.200,2.000,0.300,0,0.500,0,1.000,0,5.000,0
"05/06/08","02:00:58",34.000,"cc",28259.568,6,0.100,31.000,0.200,3.000,0.300,0,0.500,0,1.000,0,5.000,0
"05/06/08","02:01:04",23.000,"cc",28286.326,6,0.100,18.000,0.200,5.000,0.300,0,0.500,0,1.000,0,5.000,0
"05/06/08","02:01:10",33.000,"cc",28242.693,6,0.100,27.000,0.200,4.000,0.300,1.000,0.500,0,1.000,1.000,5.000,0
"05/06/08","02:01:16",29.000,"cc",28168.690,6,0.100,23.000,0.200,6.000,0.300,0,0.500,0,1.000,0,5.000,0
"05/06/08","02:01:22",38.000,"cc",28200.721,6,0.100,31.000,0.200,7.000,0.300,0,0.500,0,1.000,0,5.000,0
"05/06/08","02:01:28",20.000,"cc",28216.727,6,0.100,17.000,0.200,2.000,0.300,1.000,0.500,0,1.000,0,5.000,0
"05/06/08","02:01:34",20.000,"cc",28186.664,6,0.100,15.000,0.200,5.000,0.300,0,0.500,0,1.000,0,5.000,0
"05/06/08","02:01:40",37.000,"cc",28238.129,6,0.100,32.000,0.200,5.000,0.300,0,0.500,0,1.000,0,5.000,0
"05/06/08","02:01:46",32.000,"cc",28232.770,6,0.100,28.000,0.200,4.000,0.300,0,0.500,0,1.000,0,5.000,0
"05/06/08","02:01:52",27.000,"cc",28298.949,6,0.100,26.000,0.200,1.000,0.300,0,0.500,0,1.000,0,5.000,0
"05/06/08","02:01:58",24.000,"cc",28202.604,6,0.100,20.000,0.200,3.000,0.300,1.000,0.500,0,1.000,0,5.000,0
"05/06/08","02:02:04",18.000,"cc",28205.846,6,0.100,13.000,0.200,5.000,0.300,0,0.500,0,1.000,0,5.000,0
"05/06/08","02:02:10",29.000,"cc",28193.018,6,0.100,23.000,0.200,6.000,0.300,0,0.500,0,1.000,0,5.000,0
"05/06/08","02:02:16",20.000,"cc",28214.410,6,0.100,20.000,0.200,0,0.300,0,0.500,0,1.000,0,5.000,0
"05/06/08","02:02:22",28.000,"cc",28230.498,6,0.100,25.000,0.200,2.000,0.300,1.000,0.500,0,1.000,0,5.000,0
"05/06/08","02:02:28",27.000,"cc",28155.957,6,0.100,22.000,0.200,5.000,0.300,0,0.500,0,1.000,0,5.000,0
"05/06/08","02:02:34",29.000,"cc",28139.326,6,0.100,25.000,0.200,4.000,0.300,0,0.500,0,1.000,0,5.000,0
"05/06/08","02:02:40",21.000,"cc",28099.912,6,0.100,16.000,0.200,5.000,0.300,0,0.500,0,1.000,0,5.000,0
"05/06/08","02:02:46",24.000,"cc",28188.025,6,0.100,21.000,0.200,2.000,0.300,1.000,0.500,0,1.000,0,5.000,0
"05/06/08","02:02:52",21.000,"cc",28233.084,6,0.100,20.000,0.200,1.000,0.300,0,0.500,0,1.000,0,5.000,0
"05/06/08","02:02:58",30.000,"cc",28246.158,6,0.100,28.000,0.200,2.000,0.300,0,0.500,0,1.000,0,5.000,0
"05/06/08","02:03:04",35.000,"cc",28152.008,6,0.100,30.000,0.200,5.000,0.300,0,0.500,0,1.000,0,5.000,0
"05/06/08","02:03:10",13.000,"cc",28119.568,6,0.100,7.000,0.200,6.000,0.300,0,0.500,0,1.000,0,5.000,0
"05/06/08","02:03:16",29.000,"cc",28189.775,6,0.100,23.000,0.200,6.000,0.300,0,0.500,0,1.000,0,5.000,0
"05/06/08","02:03:22",22.000,"cc",28204.916,6,0.100,19.000,0.200,3.000,0.300,0,0.500,0,1.000,0,5.000,0
"05/06/08","02:03:28",30.000,"cc",28196.688,6,0.100,23.000,0.200,6.000,0.300,0,0.500,1.000,1.000,0,5.000,0
"05/06/08","02:03:34",28.000,"cc",28186.924,6,0.100,27.000,0.200,1.000,0.300,0,0.500,0,1.000,0,5.000,0
"05/06/08","02:03:40",27.000,"cc",28187.352,6,0.100,24.000,0.200,3.000,0.300,0,0.500,0,1.000,0,5.000,0
"05/06/08","02:03:46",23.000,"cc",28246.824,6,0.100,20.000,0.200,3.000,0.300,0,0.500,0,1.000,0,5.000,0
"05/06/08","02:03:52",22.000,"cc",28217.174,6,0.100,17.000,0.200,5.000,0.300,0,0.500,0,1.000,0,5.000,0
"05/06/08","02:03:58",26.000,"cc",28219.932,6,0.100,21.000,0.200,3.000,0.300,0,0.500,0,1.000,2.000,5.000,0
"05/06/08","02:04:04",29.000,"cc",28132.977,6,0.100,23.000,0.200,5.000,0.300,1.000,0.500,0,1.000,0,5.000,0
"05/06/08","02:04:10",19.000,"cc",28167.828,6,0.100,15.000,0.200,3.000,0.300,1.000,0.500,0,1.000,0,5.000,0
"05/06/08","02:04:16",28.000,"cc",28203.877,6,0.100,22.000,0.200,6.000,0.300,0,0.500,0,1.000,0,5.000,0
"05/06/08","02:04:22",24.000,"cc",28202.348,6,0.100,23.000,0.200,1.000,0.300,0,0.500,0,1.000,0,5.000,0
"05/06/08","02:04:28",33.000,"cc",28226.930,6,0.100,31.000,0.200,2.000,0.300,0,0.500,0,1.000,0,5.000,0
"05/06/08","02:04:34",23.000,"cc",28248.201,6,0.100,19.000,0.200,4.000,0.300,0,0.500,0,1.000,0,5.000,0
"05/06/08","02:04:40",27.000,"cc",28225.941,6,0.100,21.000,0.200,5.000,0.300,1.000,0.500,0,1.000,0,5.000,0
"05/06/08","02:04:46",30.000,"cc",28254.647,6,0.100,29.000,0.200,1.000,0.300,0,0.500,0,1.000,0,5.000,0
"05/06/08","02:04:52",24.000,"cc",28177.719,6,0.100,21.000,0.200,3.000,0.300,0,0.500,0,1.000,0,5.000,0
"05/06/08","02:04:58",23.000,"cc",28141.381,6,0.100,16.000,0.200,6.000,0.300,1.000,0.500,0,1.000,0,5.000,0
"05/06/08","02:05:04",31.000,"cc",28216.527,6,0.100,27.000,0.200,4.000,0.300,0,0.500,0,1.000,0,5.000,0
"05/06/08","02:05:10",24.000,"cc",28136.094,6,0.100,22.000,0.200,2.000,0.300,0,0.500,0,1.000,0,5.000,0
"05/06/08","02:05:16",2127.000,"cc",27833.502,6,0.100,1412.000,0.200,437.000,0.300,186.000,0.500,64.000,1.000,13.000,5.000,15.000
"05/06/08","02:05:22",233.000,"cc",27474.553,6,0.100,142.000,0.200,71.000,0.300,18.000,0.500,1.000,1.000,1.000,5.000,0
"05/06/08","02:05:28",42.000,"cc",28091.119,6,0.100,25.000,0.200,13.000,0.300,4.000,0.500,0,1.000,0,5.000,0
"05/06/08","02:05:34",35.000,"cc",28157.076,6,0.100,28.000,0.200,6.000,0.300,1.000,0.500,0,1.000,0,5.000,0
"05/06/08","02:05:40",29.000,"cc",28195.775,6,0.100,22.000,0.200,7.000,0.300,0,0.500,0,1.000,0,5.000,0
"05/06/08","02:05:46",58.000,"cc",28168.154,6,0.100,52.000,0.200,4.000,0.300,2.000,0.500,0,1.000,0,5.000,0
"05/06/08","02:05:52",26.000,"cc",28213.531,6,0.100,20.000,0.200,5.000,0.300,1.000,0.500,0,1.000,0,5.000,0
"05/06/08","02:05:58",27.000,"cc",28199.547,6,0.100,20.000,0.200,6.000,0.300,1.000,0.500,0,1.000,0,5.000,0
"05/06/08","02:06:04",26.000,"cc",28238.014,6,0.100,23.000,0.200,3.000,0.300,0,0.500,0,1.000,0,5.000,0
"05/06/08","02:06:10",19.000,"cc",28202.670,6,0.100,15.000,0.200,4.000,0.300,0,0.500,0,1.000,0,5.000,0
"05/06/08","02:06:16",31.000,"cc",28197.969,6,0.100,27.000,0.200,4.000,0.300,0,0.500,0,1.000,0,5.000,0
"05/06/08","02:06:22",24.000,"cc",28256.334,6,0.100,20.000,0.200,4.000,0.300,0,0.500,0,1.000,0,5.000,0
"05/06/08","02:06:28",26.000,"cc",28215.859,6,0.100,19.000,0.200,7.000,0.300,0,0.500,0,1.000,0,5.000,0
"05/06/08","02:06:34",19.000,"cc",28159.951,6,0.100,14.000,0.200,5.000,0.300,0,0.500,0,1.000,0,5.000,0
"05/06/08","02:06:40",14.000,"cc",28147.977,6,0.100,11.000,0.200,3.000,0.300,0,0.500,0,1.000,0,5.000,0
"05/06/08","02:06:46",32.000,"cc",28167.279,6,0.100,27.000,0.200,5.000,0.300,0,0.500,0,1.000,0,5.000,0
"05/06/08","02:06:52",19.000,"cc",28176.668,6,0.100,15.000,0.200,4.000,0.300,0,0.500,0,1.000,0,5.000,0
"05/06/08","02:06:58",29.000,"cc",28136.129,6,0.100,26.000,0.200,3.000,0.300,0,0.500,0,1.000,0,5.000,0
"05/06/08","02:07:04",23.000,"cc",28171.356,6,0.100,22.000,0.200,1.000,0.300,0,0.500,0,1.000,0,5.000,0
"05/06/08","02:07:10",28.000,"cc",28217.676,6,0.100,24.000,0.200,4.000,0.300,0,0.500,0,1.000,0,5.000,0
"05/06/08","02:07:16",23.000,"cc",28117.674,6,0.100,20.000,0.200,2.000,0.300,0,0.500,1.000,1.000,0,5.000,0
"05/06/08","02:07:22",15.000,"cc",28151.559,6,0.100,10.000,0.200,4.000,0.300,0,0.500,0,1.000,1.000,5.000,0
"05/06/08","02:07:28",22.000,"cc",28130.916,6,0.100,21.000,0.200,1.000,0.300,0,0.500,0,1.000,0,5.000,0
"05/06/08","02:07:34",22.000,"cc",28100.641,6,0.100,21.000,0.200,1.000,0.300,0,0.500,0,1.000,0,5.000,0
"05/06/08","02:07:40",28.000,"cc",28088.231,6,0.100,25.000,0.200,3.000,0.300,0,0.500,0,1.000,0,5.000,0
"05/06/08","02:07:46",23.000,"cc",28228.231,6,0.100,21.000,0.200,2.000,0.300,0,0.500,0,1.000,0,5.000,0
"05/06/08","02:07:52",38.000,"cc",28232.830,6,0.100,32.000,0.200,5.000,0.300,0,0.500,0,1.000,1.000,5.000,0
"05/06/08","02:07:58",22.000,"cc",28115.670,6,0.100,18.000,0.200,4.000,0.300,0,0.500,0,1.000,0,5.000,0
"05/06/08","02:08:04",25.000,"cc",28217.397,6,0.100,22.000,0.200,3.000,0.300,0,0.500,0,1.000,0,5.000,0
"05/06/08","02:08:10",18.000,"cc",28065.822,6,0.100,17.000,0.200,1.000,0.300,0,0.500,0,1.000,0,5.000,0
"05/06/08","02:08:16",22.000,"cc",28096.162,6,0.100,17.000,0.200,5.000,0.300,0,0.500,0,1.000,0,5.000,0
"05/06/08","02:08:22",29.000,"cc",28149.053,6,0.100,22.000,0.200,6.000,0.300,1.000,0.500,0,1.000,0,5.000,0
"05/06/08","02:08:28",29.000,"cc",28153.412,6,0.100,28.000,0.200,1.000,0.300,0,0.500,0,1.000,0,5.000,0
"05/06/08","02:08:34",17.000,"cc",28109.236,6,0.100,14.000,0.200,3.000,0.300,0,0.500,0,1.000,0,5.000,0
"05/06/08","02:08:40",26.000,"cc",28164.635,6,0.100,22.000,0.200,4.000,0.300,0,0.500,0,1.000,0,5.000,0
"05/06/08","02:08:46",26.000,"cc",28058.924,6,0.100,22.000,0.200,4.000,0.300,0,0.500,0,1.000,0,5.000,0
"05/06/08","02:08:52",27.000,"cc",28092.113,6,0.100,24.000,0.200,2.000,0.300,0,0.500,0,1.000,1.000,5.000,0
"05/06/08","02:08:58",20.000,"cc",28182.557,6,0.100,20.000,0.200,0,0.300,0,0.500,0,1.000,0,5.000,0
"05/06/08","02:09:04",27.000,"cc",28134.662,6,0.100,21.000,0.200,5.000,0.300,1.000,0.500,0,1.000,0,5.000,0
"05/06/08","02:09:10",33.000,"cc",28042.523,6,0.100,28.000,0.200,5.000,0.300,0,0.500,0,1.000,0,5.000,0
"05/06/08","02:09:16",25.000,"cc",28092.777,6,0.100,21.000,0.200,4.000,0.300,0,0.500,0,1.000,0,5.000,0
"05/06/08","02:09:22",32.000,"cc",28118.914,6,0.100,27.000,0.200,3.000,0.300,1.000,0.500,1.000,1.000,0,5.000,0
"05/06/08","02:09:28",30.000,"cc",28076.154,6,0.100,24.000,0.200,6.000,0.300,0,0.500,0,1.000,0,5.000,0
"05/06/08","02:09:34",26.000,"cc",28158.959,6,0.100,21.000,0.200,5.000,0.300,0,0.500,0,1.000,0,5.000,0
"05/06/08","02:09:40",29.000,"cc",28140.932,6,0.100,24.000,0.200,4.000,0.300,1.000,0.500,0,1.000,0,5.000,0
"05/06/08","02:09:46",38.000,"cc",28177.227,6,0.100,36.000,0.200,2.000,0.300,0,0.500,0,1.000,0,5.000,0
"05/06/08","02:09:52",29.000,"cc",28137.412,6,0.100,26.000,0.200,3.000,0.300,0,0.500,0,1.000,0,5.000,0
"05/06/08","02:09:58",27.000,"cc",28156.336,6,0.100,20.000,0.200,7.000,0.300,0,0.500,0,1.000,0,5.000,0
"05/06/08","02:10:04",27.000,"cc",28123.074,6,0.100,24.000,0.200,3.000,0.300,0,0.500,0,1.000,0,5.000,0
"05/06/08","02:10:10",21.000,"cc",28123.565,6,0.100,19.000,0.200,2.000,0.300,0,0.500,0,1.000,0,5.000,0
"05/06/08","02:10:16",34.000,"cc",28274.570,6,0.100,31.000,0.200,3.000,0.300,0,0.500,0,1.000,0,5.000,0
"05/06/08","02:10:22",26.000,"cc",28162.938,6,0.100,23.000,0.200,3.000,0.300,0,0.500,0,1.000,0,5.000,0
"05/06/08","02:10:28",21.000,"cc",28143.563,6,0.100,17.000,0.200,4.000,0.300,0,0.500,0,1.000,0,5.000,0
"05/06/08","02:10:34",34.000,"cc",28265.104,6,0.100,32.000,0.200,2.000,0.300,0,0.500,0,1.000,0,5.000,0
"05/06/08","02:10:40",26.000,"cc",28260.190,6,0.100,23.000,0.200,2.000,0.300,0,0.500,1.000,1.000,0,5.000,0
"05/06/08","02:10:46",24.000,"cc",28153.416,6,0.100,17.000,0.200,5.000,0.300,2.000,0.500,0,1.000,0,5.000,0
"05/06/08","02:10:52",24.000,"cc",28194.545,6,0.100,23.000,0.200,1.000,0.300,0,0.500,0,1.000,0,5.000,0
"05/06/08","02:10:58",27.000,"cc",28195.867,6,0.100,19.000,0.200,8.000,0.300,0,0.500,0,1.000,0,5.000,0
"05/06/08","02:11:04",32.000,"cc",28140.887,6,0.100,28.000,0.200,4.000,0.300,0,0.500,0,1.000,0,5.000,0
"05/06/08","02:11:10",25.000,"cc",28230.516,6,0.100,21.000,0.200,4.000,0.300,0,0.500,0,1.000,0,5.000,0
"05/06/08","02:11:16",28.000,"cc",28146.449,6,0.100,25.000,0.200,3.000,0.300,0,0.500,0,1.000,0,5.000,0
"05/06/08","02:11:22",20.000,"cc",28091.277,6,0.100,16.000,0.200,3.000,0.300,1.000,0.500,0,1.000,0,5.000,0
"05/06/08","02:11:28",14.000,"cc",28172.332,6,0.100,11.000,0.200,3.000,0.300,0,0.500,0,1.000,0,5.000,0
"05/06/08","02:11:34",22.000,"cc",28127.918,6,0.100,19.000,0.200,2.000,0.300,1.000,0.500,0,1.000,0,5.000,0
"05/06/08","02:11:40",33.000,"cc",28136.803,6,0.100,30.000,0.200,3.000,0.300,0,0.500,0,1.000,0,5.000,0
"05/06/08","02:11:46",38.000,"cc",28215.938,6,0.100,32.000,0.200,4.000,0.300,2.000,0.500,0,1.000,0,5.000,0
"05/06/08","02:11:52",21.000,"cc",28161.986,6,0.100,18.000,0.200,2.000,0.300,1.000,0.500,0,1.000,0,5.000,0
"05/06/08","02:11:58",25.000,"cc",28106.381,6,0.100,20.000,0.200,4.000,0.300,0,0.500,0,1.000,1.000,5.000,0
"05/06/08","02:12:04",33.000,"cc",28099.961,6,0.100,29.000,0.200,4.000,0.300,0,0.500,0,1.000,0,5.000,0
"05/06/08","02:12:10",31.000,"cc",28135.508,6,0.100,22.000,0.200,7.000,0.300,1.000,0.500,0,1.000,0,5.000,1.000
"05/06/08","02:12:16",17.000,"cc",28170.273,6,0.100,14.000,0.200,3.000,0.300,0,0.500,0,1.000,0,5.000,0
"05/06/08","02:12:22",29.000,"cc",28123.924,6,0.100,24.000,0.200,5.000,0.300,0,0.500,0,1.000,0,5.000,0
"05/06/08","02:12:28",23.000,"cc",28042.016,6,0.100,21.000,0.200,1.000,0.300,1.000,0.500,0,1.000,0,5.000,0
"05/06/08","02:12:34",31.000,"cc",28093.854,6,0.100,26.000,0.200,5.000,0.300,0,0.500,0,1.000,0,5.000,0
"05/06/08","02:12:40",22.000,"cc",28065.832,6,0.100,14.000,0.200,8.000,0.300,0,0.500,0,1.000,0,5.000,0
"05/06/08","02:12:46",25.000,"cc",28072.328,6,0.100,20.000,0.200,5.000,0.300,0,0.500,0,1.000,0,5.000,0
"05/06/08","02:12:52",25.000,"cc",28072.356,6,0.100,19.000,0.200,5.000,0.300,1.000,0.500,0,1.000,0,5.000,0
"05/06/08","02:12:58",24.000,"cc",28059.889,6,0.100,20.000,0.200,4.000,0.300,0,0.500,0,1.000,0,5.000,0
"05/06/08","02:13:04",14.000,"cc",28092.568,6,0.100,12.000,0.200,2.000,0.300,0,0.500,0,1.000,0,5.000,0
"05/06/08","02:13:10",27.000,"cc",28066.428,6,0.100,24.000,0.200,3.000,0.300,0,0.500,0,1.000,0,5.000,0
"05/06/08","02:13:16",30.000,"cc",28093.229,6,0.100,24.000,0.200,6.000,0.300,0,0.500,0,1.000,0,5.000,0
"05/06/08","02:13:22",31.000,"cc",28190.231,6,0.100,27.000,0.200,4.000,0.300,0,0.500,0,1.000,0,5.000,0
"05/06/08","02:13:28",29.000,"cc",28125.359,6,0.100,27.000,0.200,2.000,0.300,0,0.500,0,1.000,0,5.000,0
"05/06/08","02:13:34",20.000,"cc",28099.295,6,0.100,16.000,0.200,4.000,0.300,0,0.500,0,1.000,0,5.000,0
"05/06/08","02:13:40",21.000,"cc",28140.111,6,0.100,15.000,0.200,6.000,0.300,0,0.500,0,1.000,0,5.000,0
"05/06/08","02:13:46",23.000,"cc",28126.471,6,0.100,19.000,0.200,4.000,0.300,0,0.500,0,1.000,0,5.000,0
"05/06/08","02:13:52",31.000,"cc",28170.973,6,0.100,22.000,0.200,8.000,0.300,1.000,0.500,0,1.000,0,5.000,0
"05/06/08","02:13:58",20.000,"cc",28119.361,6,0.100,16.000,0.200,4.000,0.300,0,0.500,0,1.000,0,5.000,0
"05/06/08","02:14:04",29.000,"cc",28090.115,6,0.100,27.000,0.200,2.000,0.300,0,0.500,0,1.000,0,5.000,0
"05/06/08","02:14:10",25.000,"cc",28110.965,6,0.100,19.000,0.200,6.000,0.300,0,0.500,0,1.000,0,5.000,0
"05/06/08","02:14:16",25.000,"cc",28200.406,6,0.100,24.000,0.200,1.000,0.300,0,0.500,0,1.000,0,5.000,0
"05/06/08","02:14:22",27.000,"cc",28099.828,6,0.100,23.000,0.200,4.000,0.300,0,0.500,0,1.000,0,5.000,0
"05/06/08","02:14:28",28.000,"cc",28060.525,6,0.100,25.000,0.200,3.000,0.300,0,0.500,0,1.000,0,5.000,0
"05/06/08","02:14:34",16.000,"cc",28038.801,6,0.100,14.000,0.200,2.000,0.300,0,0.500,0,1.000,0,5.000,0
"05/06/08","02:14:40",17.000,"cc",28137.885,6,0.100,11.000,0.200,4.000,0.300,2.000,0.500,0,1.000,0,5.000,0
"05/06/08","02:14:46",28.000,"cc",28104.809,6,0.100,22.000,0.200,6.000,0.300,0,0.500,0,1.000,0,5.000,0
"05/06/08","02:14:52",19.000,"cc",28022.385,6,0.100,18.000,0.200,1.000,0.300,0,0.500,0,1.000,0,5.000,0
"05/06/08","02:14:58",14.000,"cc",28056.936,6,0.100,12.000,0.200,2.000,0.300,0,0.500,0,1.000,0,5.000,0
"05/06/08","02:15:04",33.000,"cc",28084.529,6,0.100,27.000,0.200,6.000,0.300,0,0.500,0,1.000,0,5.000,0
"05/06/08","02:15:10",19.000,"cc",28043.201,6,0.100,17.000,0.200,2.000,0.300,0,0.500,0,1.000,0,5.000,0
"05/06/08","02:15:16",18.000,"cc",27983.416,6,0.100,17.000,0.200,1.000,0.300,0,0.500,0,1.000,0,5.000,0
"05/06/08","02:15:22",28.000,"cc",28067.883,6,0.100,24.000,0.200,4.000,0.300,0,0.500,0,1.000,0,5.000,0
"05/06/08","02:15:28",26.000,"cc",28091.969,6,0.100,19.000,0.200,7.000,0.300,0,0.500,0,1.000,0,5.000,0
"05/06/08","02:15:34",22.000,"cc",28152.369,6,0.100,20.000,0.200,2.000,0.300,0,0.500,0,1.000,0,5.000,0
"05/06/08","02:15:40",34.000,"cc",28062.838,6,0.100,29.000,0.200,3.000,0.300,2.000,0.500,0,1.000,0,5.000,0
"05/06/08","02:15:46",23.000,"cc",28167.068,6,0.100,19.000,0.200,4.000,0.300,0,0.500,0,1.000,0,5.000,0
"05/06/08","02:15:52",20.000,"cc",28051.184,6,0.100,16.000,0.200,3.000,0.300,1.000,0.500,0,1.000,0,5.000,0
"05/06/08","02:15:58",22.000,"cc",27991.090,6,0.100,19.000,0.200,3.000,0.300,0,0.500,0,1.000,0,5.000,0
"05/06/08","02:16:04",22.000,"cc",27989.035,6,0.100,17.000,0.200,4.000,0.300,1.000,0.500,0,1.000,0,5.000,0
"05/06/08","02:16:10",27.000,"cc",28111.385,6,0.100,24.000,0.200,3.000,0.300,0,0.500,0,1.000,0,5.000,0
"05/06/08","02:16:16",26.000,"cc",28156.592,6,0.100,23.000,0.200,3.000,0.300,0,0.500,0,1.000,0,5.000,0
"05/06/08","02:16:22",28.000,"cc",28138.373,6,0.100,22.000,0.200,6.000,0.300,0,0.500,0,1.000,0,5.000,0
"05/06/08","02:16:28",32.000,"cc",28073.715,6,0.100,28.000,0.200,4.000,0.300,0,0.500,0,1.000,0,5.000,0
"05/06/08","02:16:34",29.000,"cc",28140.594,6,0.100,24.000,0.200,4.000,0.300,1.000,0.500,0,1.000,0,5.000,0
"05/06/08","02:16:40",32.000,"cc",27985.914,6,0.100,22.000,0.200,10.000,0.300,0,0.500,0,1.000,0,5.000,0
"05/06/08","02:16:46",23.000,"cc",28086.811,6,0.100,19.000,0.200,4.000,0.300,0,0.500,0,1.000,0,5.000,0
"05/06/08","02:16:52",31.000,"cc",28044.371,6,0.100,27.000,0.200,3.000,0.300,1.000,0.500,0,1.000,0,5.000,0
"05/06/08","02:16:58",25.000,"cc",28086.481,6,0.100,22.000,0.200,3.000,0.300,0,0.500,0,1.000,0,5.000,0
"05/06/08","02:17:04",35.000,"cc",28030.070,6,0.100,27.000,0.200,8.000,0.300,0,0.500,0,1.000,0,5.000,0
"05/06/08","02:17:10",28.000,"cc",28004.440,6,0.100,24.000,0.200,3.000,0.300,1.000,0.500,0,1.000,0,5.000,0
"05/06/08","02:17:16",23.000,"cc",28069.811,6,0.100,20.000,0.200,3.000,0.300,0,0.500,0,1.000,0,5.000,0
"05/06/08","02:17:22",23.000,"cc",28076.902,6,0.100,19.000,0.200,3.000,0.300,0,0.500,0,1.000,1.000,5.000,0
"05/06/08","02:17:28",31.000,"cc",28086.451,6,0.100,25.000,0.200,5.000,0.300,1.000,0.500,0,1.000,0,5.000,0
"05/06/08","02:17:34",23.000,"cc",28135.879,6,0.100,19.000,0.200,4.000,0.300,0,0.500,0,1.000,0,5.000,0
"05/06/08","02:17:40",27.000,"cc",28119.313,6,0.100,23.000,0.200,4.000,0.300,0,0.500,0,1.000,0,5.000,0
"05/06/08","02:17:46",33.000,"cc",28164.373,6,0.100,29.000,0.200,4.000,0.300,0,0.500,0,1.000,0,5.000,0
"05/06/08","02:17:52",30.000,"cc",28126.869,6,0.100,23.000,0.200,7.000,0.300,0,0.500,0,1.000,0,5.000,0
"05/06/08","02:17:58",23.000,"cc",28164.965,6,0.100,19.000,0.200,3.000,0.300,1.000,0.500,0,1.000,0,5.000,0
"05/06/08","02:18:04",28.000,"cc",28149.301,6,0.100,25.000,0.200,3.000,0.300,0,0.500,0,1.000,0,5.000,0
"05/06/08","02:18:10",7337.000,"cc",27654.381,6,0.100,4906.000,0.200,1724.000,0.300,240.000,0.500,234.000,1.000,147.000,5.000,86.000
"05/06/08","02:18:16",522.000,"cc",26229.459,6,0.100,354.000,0.200,95.000,0.300,27.000,0.500,35.000,1.000,9.000,5.000,2.000
"05/06/08","02:18:22",103.000,"cc",26509.242,6,0.100,59.000,0.200,28.000,0.300,7.000,0.500,4.000,1.000,5.000,5.000,0
"05/06/08","02:18:28",54.000,"cc",26465.316,6,0.100,39.000,0.200,8.000,0.300,4.000,0.500,2.000,1.000,1.000,5.000,0
"05/06/08","02:18:34",43.000,"cc",26445.785,6,0.100,34.000,0.200,7.000,0.300,0,0.500,2.000,1.000,0,5.000,0
"05/06/08","02:18:40",38.000,"cc",26484.744,6,0.100,30.000,0.200,6.000,0.300,1.000,0.500,0,1.000,1.000,5.000,0
"05/06/08","02:18:46",33.000,"cc",26555.949,6,0.100,27.000,0.200,5.000,0.300,1.000,0.500,0,1.000,0,5.000,0
"05/06/08","02:18:52",29.000,"cc",26495.701,6,0.100,25.000,0.200,3.000,0.300,1.000,0.500,0,1.000,0,5.000,0
"05/06/08","02:18:58",23.000,"cc",26482.688,6,0.100,18.000,0.200,5.000,0.300,0,0.500,0,1.000,0,5.000,0
"05/06/08","02:19:04",32.000,"cc",26597.359,6,0.100,25.000,0.200,6.000,0.300,1.000,0.500,0,1.000,0,5.000,0
"05/06/08","02:19:10",51.000,"cc",26831.647,6,0.100,42.000,0.200,8.000,0.300,0,0.500,0,1.000,1.000,5.000,0
"05/06/08","02:19:16",20.000,"cc",27135.441,6,0.100,19.000,0.200,1.000,0.300,0,0.500,0,1.000,0,5.000,0
"05/06/08","02:19:22",30.000,"cc",27609.086,6,0.100,25.000,0.200,5.000,0.300,0,0.500,0,1.000,0,5.000,0
"05/06/08","02:19:28",24.000,"cc",28036.830,6,0.100,21.000,0.200,3.000,0.300,0,0.500,0,1.000,0,5.000,0
"05/06/08","02:19:34",23.000,"cc",28131.648,6,0.100,21.000,0.200,1.000,0.300,1.000,0.500,0,1.000,0,5.000,0
"05/06/08","02:19:40",25.000,"cc",28155.865,6,0.100,21.000,0.200,4.000,0.300,0,0.500,0,1.000,0,5.000,0
"05/06/08","02:19:46",26.000,"cc",28119.936,6,0.100,25.000,0.200,1.000,0.300,0,0.500,0,1.000,0,5.000,0
"05/06/08","02:19:52",39.000,"cc",28206.885,6,0.100,32.000,0.200,6.000,0.300,1.000,0.500,0,1.000,0,5.000,0
"05/06/08","02:19:58",34.000,"cc",28364.281,6,0.100,29.000,0.200,4.000,0.300,0,0.500,1.000,1.000,0,5.000,0
"05/06/08","02:20:04",22.000,"cc",28223.682,6,0.100,22.000,0.200,0,0.300,0,0.500,0,1.000,0,5.000,0
"05/06/08","02:20:10",25.000,"cc",28214.106,6,0.100,24.000,0.200,1.000,0.300,0,0.500,0,1.000,0,5.000,0
"05/06/08","02:20:16",22.000,"cc",28208.652,6,0.100,15.000,0.200,6.000,0.300,1.000,0.500,0,1.000,0,5.000,0
"05/06/08","02:20:22",20.000,"cc",28144.656,6,0.100,17.000,0.200,3.000,0.300,0,0.500,0,1.000,0,5.000,0
"05/06/08","02:20:28",29.000,"cc",28202.231,6,0.100,24.000,0.200,5.000,0.300,0,0.500,0,1.000,0,5.000,0
"05/06/08","02:20:34",24.000,"cc",28200.502,6,0.100,22.000,0.200,2.000,0.300,0,0.500,0,1.000,0,5.000,0
"05/06/08","02:20:40",28.000,"cc",28246.693,6,0.100,20.000,0.200,7.000,0.300,1.000,0.500,0,1.000,0,5.000,0
"05/06/08","02:20:46",16.000,"cc",28099.107,6,0.100,12.000,0.200,3.000,0.300,1.000,0.500,0,1.000,0,5.000,0
"05/06/08","02:20:52",23.000,"cc",28059.125,6,0.100,16.000,0.200,7.000,0.300,0,0.500,0,1.000,0,5.000,0
"05/06/08","02:20:58",19.000,"cc",28148.721,6,0.100,15.000,0.200,4.000,0.300,0,0.500,0,1.000,0,5.000,0
"05/06/08","02:21:04",30.000,"cc",28107.104,6,0.100,25.000,0.200,5.000,0.300,0,0.500,0,1.000,0,5.000,0
"05/06/08","02:21:10",28.000,"cc",28050.191,6,0.100,21.000,0.200,7.000,0.300,0,0.500,0,1.000,0,5.000,0
"05/06/08","02:21:16",19.000,"cc",28153.846,6,0.100,17.000,0.200,2.000,0.300,0,0.500,0,1.000,0,5.000,0
"05/06/08","02:21:22",32.000,"cc",28211.481,6,0.100,26.000,0.200,6.000,0.300,0,0.500,0,1.000,0,5.000,0
"05/06/08","02:21:28",25.000,"cc",28079.520,6,0.100,20.000,0.200,5.000,0.300,0,0.500,0,1.000,0,5.000,0